Regional Weather Roundup
Issued by NWS

Home | Current Version | Previous Version | Graphics & Text | Print | Product List | Glossary On
Versions: 1 2 3 4 5 6 7 8 9 10 11 12 13 14 15 16 17 18 19 20 21 22 23 24 25 26 27 28 29 30 31 32 33 34 35 36 37 38 39 40 41 42 43 44 45 46 47 48 49 50
000
ASUS45 KBOU 311107
RWRCO

WEATHER ROUNDUP FOR COLORADO
NATIONAL WEATHER SERVICE DENVER/BOULDER CO
500 AM MDT SUN AUG 31 2014

NOTE: "FAIR" INDICATES FEW OR NO CLOUDS BELOW 12000 FEET WITH NO
SIGNIFICANT WEATHER AND/OR OBSTRUCTIONS TO VISIBILITY.

COZ001>005-013-030-031-311200-
...NORTHWEST COLORADO...

CITY           SKY/WX    TMP DP  RH WIND       PRES   REMARKS
CRAIG          LGT RAIN  55  49  80 CALM      30.00F
HAYDEN         CLOUDY    54  46  76 S7        30.03R
MEEKER         CLOUDY    60  46  59 NE7       29.97S
MOUNT WERNER   NOT AVBL
STEAMBOAT SPGS CLOUDY    53  47  82 NW8       30.04R
WALDEN         CLOUDY    50  45  81 SE3       30.09F
$$

COZ006>008-011-311200-
...WEST CENTRAL VALLEYS...

CITY           SKY/WX    TMP DP  RH WIND       PRES   REMARKS
GRAND JUNCTION MOCLDY    65  42  43 E12       29.87R
MONTROSE       MOCLDY    63  41  44 S13       29.99F
EAGLE          CLOUDY    48  46  93 CALM      30.04S
RIFLE          CLOUDY    58  48  69 CALM      29.93S
DELTA          NOT AVBL
NUCLA          MOCLDY    66  36  32 CALM      30.04S
$$

COZ017>023-064>068-311200-
...SOUTHWEST COLORADO...

CITY           SKY/WX    TMP DP  RH WIND       PRES   REMARKS
DURANGO        PTCLDY    46  38  73 NE3       30.13R
CORTEZ         CLEAR     52  43  71 E8        30.06S
PAGOSA SPRINGS PTCLDY    48  34  57 CALM      30.19S
TELLURIDE      NOT AVBL
WOLF CREEK PAS NOT AVBL
$$

COZ009-010-012-014-032>034-037-058>063-311200-
...CENTRAL COLORADO...

CITY           SKY/WX    TMP DP  RH WIND       PRES   REMARKS
ASPEN          CLOUDY    56  39  53 VRB5      30.07F
BUENA VISTA    MOCLDY    43  38  82 NW5       30.12S
COPPER MTN     MOCLDY    52  30  43 SW15G29   30.36S
BERTHOUD PASS  FAIR      41  41 100 W25G46    30.35F
COTTONWOOD PAS MOCLDY    59  30  33 N7        30.21F
GUNNISON       MOCLDY    43  37  81 NE3       30.18S
KREMMLING      MOCLDY    50  43  76 NW3G17    30.09R
LEADVILLE      MOCLDY    48  33  56 VRB3      30.21F
MONARCH PASS   MOCLDY    45  30  57 SW30G39   30.48F
SALIDA         MOCLDY    49  41  75 CALM      30.17S
SUNLIGHT       CLOUDY    46  37  71 CALM      30.25F
WILKERSON PASS NOT AVBL
$$

COZ069>075-311200-
...SAN LUIS VALLEY/SANGRE DE CRISTO MOUNTAINS...

CITY           SKY/WX    TMP DP  RH WIND       PRES   REMARKS
ALAMOSA        PTCLDY    42  36  79 CALM      30.15S
LA VETA PASS   NOT AVBL
SAGUACHE       NOT AVBL
$$

COZ035-036-038>040-311200-
...NORTHERN COLORADO FRONT RANGE...

CITY           SKY/WX    TMP DP  RH WIND       PRES   REMARKS
DENVER INTL AP MOCLDY    56  49  77 SE3       29.89F
DMNS CITY PARK   N/A     57  48  71 SW3       29.89S
AURORA         MOCLDY    62  43  50 SW8       29.91F
FRONT RANGE AP MOCLDY    59  48  67 NE5       29.90F
ERIE MUNI ARPT MOCLDY    54  49  83 CALM      29.87S
BOULDER MUN AP MOCLDY    59  45  58 SW5       29.88S
CENTENNIAL     MOCLDY    59  42  53 CALM      29.91F
BROOMFIELD     MOCLDY    59  45  58 W6        29.90F
FORT COLLINS   CLOUDY    59  54  82 CALM      29.88R
LONGMONT       CLOUDY    58  50  75 NW5       29.89F
$$

COZ041-046-047-076>085-087-088-311200-
...PIKES PEAK/PALMER DIVIDE AND SOUTHERN FOOTHILLS...

CITY           SKY/WX    TMP DP  RH WIND       PRES   REMARKS
COLO. SPRINGS  MOCLDY    62  43  49 SE3       30.01F
A. F. ACADEMY  MOCLDY    51  45  81 N2        30.02F
ELLICOTT       MOCLDY    51  45  79 CALM      29.99F
FALCON         MOCLDY    56  43  61 SW7       30.05F
FORT CARSON    MOCLDY    61  42  49 SW5       29.98F
LIMON          PTCLDY    48  45  89 CALM      29.94F
MONUMENT HILL  MOCLDY    59  41  51 S16G22    30.01F
TRINIDAD       CLEAR     61  38  42 W9        29.98F
$$

COZ042>045-048>051-090-091-311200-
...NORTHEAST COLORADO...

CITY           SKY/WX    TMP DP  RH WIND       PRES   REMARKS
GREELEY ARPT   CLOUDY    59  50  72 NW6       29.87R
AKRON          PTCLDY    58  50  75 NW7       29.88R
BURLINGTON     CLEAR     60  56  86 SE9       29.86F
WRAY             N/A     62  53  72 S8        29.82F
STERLING       PTCLDY    63  54  72 SE5       29.83F
HOLYOKE        CLEAR     61  54  77 NW5       29.82F
FORT MORGAN    PTCLDY    61  51  69 NE5       29.85F
$$

COZ086-089-092>099-311200-
...SOUTHEAST COLORADO...

CITY           SKY/WX    TMP DP  RH WIND       PRES   REMARKS
PUEBLO         PTCLDY    56  43  61 N10       29.92S
LA JUNTA       CLEAR     60  52  74 NW6       29.87F
LAMAR          CLEAR     55  52  89 W8        29.82S
SPRINGFIELD      N/A     65  48  54 S13       29.90S
$$


USA.gov is the U.S. government's official web portal to all federal, state and local government web resources and services.